Grazzanise, Italy

10:01 PM CEST on May 24, 2017 (GMT +0200)
Grazzanise Mil

Weather History for LIRM - April, 2013

Change the Weather History Date:

Sunday, April 28, 2013

  Actual Average (LIRN) Record (LIRN)
Temperature  
Mean Temperature 63 °F -  
Max Temperature 78 °F 72 °F 80 °F (1999)
Min Temperature 48 °F 52 °F 48 °F (2008)
Degree Days  
Heating Degree Days 2    
Growing Degree Days 13 (Base 50)    
Moisture  
Dew Point 57 °F    
Average Humidity 78    
Maximum Humidity 100    
Minimum Humidity 49    
Precipitation  
Precipitation 0.00 in 0.06 in - ()
Sea Level Pressure  
Sea Level Pressure 29.94 in    
Wind  
Wind Speed 3 mph ()    
Max Wind Speed 6 mph    
Max Gust Speed -    
Visibility 7.7 miles    
Events      
Averages and records for this station are not official NWS values.
T = Trace of Precipitation, MM = Missing Value Source: Averaged Metar Reports

Daily Weather History Graph

Daily Weather History Graph

Search for Another Location

Airport or City:

Trip Planner

Search our weather history database for the weather conditions in past years. The results will help you decide how hot, cold, wet, or windy it might be!

Date:

Astronomy

Apr. 28, 2013 Rise Set
Actual Time 6:05 AM CEST 7:57 PM CEST
Civil Twilight 5:36 AM CEST 8:27 PM CEST
Nautical Twilight 5:00 AM CEST 9:03 PM CEST
Astronomical Twilight 4:21 AM CEST 9:42 PM CEST
Moon 11:11 PM CEST (4/28) 8:03 AM CEST (4/28)
Length of Visible Light 14h 51m
Length of Day
13h 51m
Waning Gibbous, 91% of the Moon is Illuminated
Apr 28
Waning Gibbous
May 2
Last Quarter
May 10
New
May 18
First Quarter
May 25
Full

Hourly Weather History & Observations

Time (CEST) Temp. Dew Point Humidity Pressure Visibility Wind Dir Wind Speed Gust Speed Precip Events Conditions
12:55 AM 55.4 °F 51.8 °F 88% 29.89 in 6.2 mi Calm Calm - N/A   Mostly Cloudy
1:55 AM 55.4 °F 51.8 °F 88% 29.89 in 6.2 mi NNE 4.6 mph - N/A   Mostly Cloudy
2:00 AM 55 °F 51 °F 81% 29.89 in 9 mi NNE 4.6 mph - -  
2:55 AM 55.4 °F 51.8 °F 88% 29.89 in 6.2 mi NNE 4.6 mph - N/A   Mostly Cloudy
3:55 AM 50.0 °F 46.4 °F 87% 29.89 in 6.2 mi North 2.3 mph - N/A   Partly Cloudy
4:55 AM 50.0 °F 46.4 °F 87% 29.89 in 6.2 mi North 2.3 mph - N/A   Partly Cloudy
5:00 AM 51 °F 46 °F 79% 29.89 in 9 mi North 2.3 mph - -   Scattered Clouds
5:55 AM 48.2 °F 44.6 °F 87% 29.89 in 3.1 mi Calm Calm - N/A   Partly Cloudy
6:55 AM 48.2 °F 44.6 °F 87% 29.89 in 2.5 mi NNE 4.6 mph - N/A   Mist
7:55 AM 55.4 °F 51.8 °F 88% 29.92 in - NE 3.5 mph - N/A   Clear
8:00 AM 56 °F 51 °F 80% 29.93 in 7 mi NE 3.5 mph - -  
8:55 AM 60.8 °F 57.2 °F 88% 29.95 in - NE 3.5 mph - N/A   Clear
9:55 AM 66.2 °F 60.8 °F 83% 29.95 in - ENE 5.8 mph - N/A   Clear
10:55 AM 69.8 °F 60.8 °F 73% 29.95 in 6.2 mi ENE 2.3 mph - N/A   Partly Cloudy
11:00 AM 70 °F 60 °F 64% 29.96 in 9 mi ENE 2.3 mph - -   Scattered Clouds
11:55 AM 71.6 °F 59.0 °F 64% 29.98 in 6.2 mi North 2.3 mph - N/A   Partly Cloudy
12:55 PM 73.4 °F 59.0 °F 61% 29.95 in 6.2 mi West 3.5 mph - N/A   Partly Cloudy
1:55 PM 75.2 °F 60.8 °F 61% 29.95 in 6.2 mi WSW 2.3 mph - N/A   Partly Cloudy
2:00 PM 76 °F 60 °F 49% 29.97 in 14 mi WSW 2.3 mph - -  
2:55 PM 77.0 °F 62.6 °F 61% 29.95 in 6.2 mi WSW 5.8 mph - N/A   Partly Cloudy
3:55 PM 77.0 °F 62.6 °F 61% 29.95 in - WSW 3.5 mph - N/A   Clear
4:55 PM 78.8 °F 64.4 °F 61% 29.95 in - North 2.3 mph - N/A   Clear
5:00 PM 78 °F 65 °F 56% 29.95 in 14 mi North 2.3 mph - -   Clear
5:55 PM 77.0 °F 66.2 °F 69% 29.95 in - North 2.3 mph - N/A   Clear
6:55 PM 73.4 °F 66.2 °F 78% 29.92 in - NE 3.5 mph - N/A   Clear
7:55 PM 71.6 °F 66.2 °F 83% 29.92 in - NNE 4.6 mph - N/A   Clear
8:00 PM 72 °F 66 °F 75% 29.94 in 14 mi NNE 4.6 mph - -  
8:55 PM 68.0 °F 64.4 °F 88% 29.95 in - NE 4.6 mph - N/A   Clear
9:55 PM 62.6 °F 62.6 °F 100% 29.98 in - WSW 2.3 mph - N/A   Clear
10:55 PM 59.0 °F 59.0 °F 100% 29.98 in - NNE 3.5 mph - N/A   Clear
11:00 PM 60 °F 58 °F 92% 29.99 in 11 mi NNE 3.5 mph - -   Clear
11:55 PM 59.0 °F 57.2 °F 94% 29.98 in - NNE 3.5 mph - N/A   Clear